Regional Weather Roundup
Issued by NWS Mobile, AL

Home | Current Version | Previous Version | Text Only | Print | Product List | Glossary On
Versions: 1 2 3 4 5 6 7 8 9 10 11 12 13 14 15 16 17 18 19 20 21 22 23 24 25 26 27 28 29 30 31 32 33 34 35 36 37 38 39 40 41 42 43 44 45 46 47 48 49 50
000
ASUS44 KMOB 302012
RWRMOB
REGIONAL WEATHER ROUNDUP
NATIONAL WEATHER SERVICE MOBILE AL
300 PM CDT TUE AUG 30 2016

NOTE: "FAIR" INDICATES FEW OR NO CLOUDS BELOW 12,000 FEET WITH NO
      SIGNIFICANT WEATHER AND/OR OBSTRUCTIONS TO VISIBILITY.

  * THESE STATIONS ARE PART OF THE UNIVERSITY OF SOUTH ALABAMA
    MESONET AND ARE NOT UNDER NWS OR FAA QUALITY CONTROL.

ALZ061>064-302100-
COASTAL ALABAMA

CITY           SKY/WX    TMP DP  RH WIND       PRES   REMARKS
MOBILE REG APT MOSUNNY   91  70  49 NE13      29.94F HX  96
BROOKLEY FIELD SUNNY     92  72  51 NE10      29.93F HX  99
USA CAMPUS*    NOT AVBL
DOG RIVER*     NOT AVBL


CITY           SKY/WX    TMP DP  RH WIND       PRES   REMARKS
MOUNT VERNON*  NOT AVBL
SARALAND*      NOT AVBL
BAY MINETTE*   NOT AVBL
LOXLEY*        NOT AVBL
ROBERTSDALE*   NOT AVBL
FAIRHOPE*      NOT AVBL
ELBERTA*       NOT AVBL
FOLEY*         NOT AVBL
GRAND BAY*     NOT AVBL
DAUPHIN ISLND* NOT AVBL
BON SCOUR NWR* NOT AVBL
GULF SHORES    MOSUNNY   90  76  62 E8        29.91F HX 102

$$

ALZ051>060-302100-
INTERIOR SOUTHWEST AND SOUTH CENTRAL ALABAMA

CITY           SKY/WX    TMP DP  RH WIND       PRES   REMARKS
GREENVILLE     MOSUNNY   92  69  47 E8        29.96F HX  97
EVERGREEN      MOSUNNY   91  70  49 E7        29.95F HX  96
CASTLEBERRY*   NOT AVBL
ATMORE*        NOT AVBL
DIXIE*         NOT AVBL
ANDALUSIA/OPP  MOSUNNY   94  69  44 E10G22    29.95F HX  99
ANDALUSIA*     NOT AVBL
FLORALA APT    MOSUNNY   90  69  50 NE9       29.95F
FLORALA*       NOT AVBL

$$

FLZ001>006-302100-
WESTERN FLORIDA PANHANDLE

CITY           SKY/WX    TMP DP  RH WIND       PRES   REMARKS
PENSACOLA      MOSUNNY   94  71  47 E8        29.91F HX 101
NAS PENSACOLA  MOSUNNY   88  75  65 SE14      29.91F HX  97
MILTON         MOSUNNY   91  72  53 E10G18    29.92F HX  98
WHTNG S FIELD  NOT AVBL


CITY           SKY/WX    TMP DP  RH WIND       PRES   REMARKS
WALNUT HILL*   NOT AVBL
JAY*           NOT AVBL
DUKE FIELD     MOSUNNY   90  69  49 NE12G17   29.91F
CRESTVIEW      MOSUNNY   92  68  45 NE9       29.94F HX  96
VALPARAISO     MOSUNNY   94  68  43 NE14      29.91F HX  98
DESTIN         SUNNY     94  72  48 E9        29.90F HX 102

$$

MSZ076-079-302100-
INTERIOR SOUTHEAST MISSISSIPPI

CITY           SKY/WX    TMP DP  RH WIND       PRES   REMARKS
LEAKESVILLE*   NOT AVBL
AGRICOLA*      NOT AVBL

$$

MARINE OBSERVATIONS

STATION/POSITION TIME  TEMP    WIND        PRES    WAVE
                       AIR SEA DIR/SP/G            HT/PER
                 (UTC) (F)     (DEG/KT/KT) (MB)    (FT/S)
PASCAGOULA       1900   89      90/  6/ 10 1013.4F
PETIT BOIS ISLND 1900   87      70/  9/ 11 1014.4F
GRAND BAY        1800   86      70/ 10     1016.0S
KATRINA CUT      1900   86      70/  8     1014.6F
CEDAR POINT      1900   86      60/  7     1013.9F
E DAUPHIN ISLAND 2000   86     110/  9/ 10 1012.6F
MIDDLE BAY LIGHT 1900   88      40/ 11     1013.5F
USCG MOBILE BAY  1900   88 85   80/ 10/ 12 1014.3F
STATE DOCKS      1900   94 88              1013.7F
MEAHER PARK      1900   89      70/  6     1013.9F
WEEKS BAY        1800   89                   N/A
FORT MORGAN      1900   86     120/ 12/ 15 1013.1F
12 S ORANGE BCH  1950   85 86   90/ 12/ 14 1012.7F   4/ 7
PENSACOLA BAY    1900   94 86  110/  2/  5 1013.7F
64 S DAUPHIN ISL 2000   84 85   60/ 19/ 23 1011.5F
67 S FORT MORGAN 1930   85      50/ 21     1011.9F

$$

SELECTED LOCATIONS ACROSS THE REGION

CITY           SKY/WX    TMP DP  RH WIND       PRES   REMARKS
NEW ORLEANS    MOSUNNY   94  73  50 E12       29.91F HX 103
GULFPORT       PTSUNNY   89  76  65 SE12      29.90F HX 100
PASCAGOULA AP  PTSUNNY   91  73  55 NE7       29.91F HX  99
PASCAGOULA*    NOT AVBL
HATTIESBURG    SUNNY     93  70  46 E7        29.94F HX  99
LAUREL         SUNNY    N/A N/A N/A NE9       29.97F
MERIDIAN       MOSUNNY   94  71  47 E10       29.97F HX 101
JACKSON        MOSUNNY   94  70  45 NE6       29.96F HX 100
MONTGOMERY     MOSUNNY   94  68  42 E7        29.97F HX  98
TROY           SUNNY     91  70  49 SE8       29.96F HX  96
KINSTON*       NOT AVBL
GENEVA*        NOT AVBL
ASHFORD*       NOT AVBL
DOTHAN         SUNNY     92  70  48 E6        29.97F HX  97
PANAMA CITY    MOSUNNY   91  71  51 NE13      29.89F HX  97

$$




USA.gov is the U.S. government's official web portal to all federal, state and local government web resources and services.